TimeCDT,TemperatureF,Dew PointF,Humidity,Sea Level PressureIn,VisibilityMPH,Wind Direction,Wind SpeedMPH,Gust SpeedMPH,PrecipitationIn,Events,Conditions,WindDirDegrees,DateUTC
1:54 AM,46.9,28.9,50,30.25,10.0,NW,9.2,-,N/A,,Partly Cloudy,310,2013-03-13 06:54:00
2:54 AM,44.1,28.9,55,30.26,10.0,NNW,9.2,-,N/A,,Clear,330,2013-03-13 07:54:00
3:54 AM,42.1,26.1,53,30.27,10.0,NNW,6.9,-,N/A,,Clear,340,2013-03-13 08:54:00
4:54 AM,39.9,25.0,55,30.30,10.0,NW,9.2,-,N/A,,Clear,310,2013-03-13 09:54:00
5:54 AM,37.9,25.0,60,30.31,10.0,WNW,5.8,-,N/A,,Clear,300,2013-03-13 10:54:00
6:54 AM,37.0,24.1,59,30.34,10.0,NW,6.9,-,N/A,,Partly Cloudy,310,2013-03-13 11:54:00
7:54 AM,39.0,25.0,57,30.36,10.0,WNW,9.2,-,N/A,,Clear,300,2013-03-13 12:54:00
8:54 AM,41.0,24.1,51,30.38,10.0,NW,11.5,21.9,N/A,,Clear,320,2013-03-13 13:54:00
9:54 AM,43.0,24.1,47,30.40,10.0,NNW,16.1,20.7,N/A,,Clear,340,2013-03-13 14:54:00
10:54 AM,44.1,25.0,47,30.42,10.0,NW,12.7,-,N/A,,Clear,310,2013-03-13 15:54:00
11:54 AM,46.0,25.0,44,30.42,10.0,NW,12.7,18.4,N/A,,Clear,320,2013-03-13 16:54:00
12:54 PM,48.0,24.1,39,30.42,10.0,NNW,10.4,-,N/A,,Partly Cloudy,340,2013-03-13 17:54:00
1:54 PM,48.9,26.1,41,30.40,10.0,NNW,13.8,20.7,N/A,,Partly Cloudy,340,2013-03-13 18:54:00
2:54 PM,50.0,26.1,39,30.40,10.0,North,13.8,28.8,N/A,,Scattered Clouds,350,2013-03-13 19:54:00
3:54 PM,50.0,26.1,39,30.40,10.0,NNW,12.7,20.7,N/A,,Scattered Clouds,330,2013-03-13 20:54:00
4:54 PM,50.0,24.1,36,30.39,10.0,NNW,12.7,26.5,N/A,,Partly Cloudy,330,2013-03-13 21:54:00
5:54 PM,48.9,23.0,36,30.40,10.0,NNW,11.5,17.3,N/A,,Partly Cloudy,340,2013-03-13 22:54:00
6:54 PM,46.0,21.9,39,30.39,10.0,NNW,8.1,-,N/A,,Partly Cloudy,330,2013-03-13 23:54:00
7:54 PM,44.1,21.9,42,30.39,10.0,NNW,3.5,-,N/A,,Partly Cloudy,340,2013-03-14 00:54:00
8:54 PM,44.1,23.0,43,30.40,10.0,NNE,3.5,-,N/A,,Clear,30,2013-03-14 01:54:00
9:54 PM,42.1,23.0,47,30.40,10.0,Calm,Calm,-,N/A,,Clear,0,2013-03-14 02:54:00
10:54 PM,41.0,25.0,53,30.41,10.0,Calm,Calm,-,N/A,,Clear,0,2013-03-14 03:54:00
11:54 PM,39.0,25.0,57,30.42,10.0,Calm,Calm,-,N/A,,Clear,0,2013-03-14 04:54:00